Holland, MI

3:04 PM EST on January 23, 2017 (GMT -0500)
Tulip City

Weather History for KBIV - July, 2013

Change the Weather History Date:

Monday, July 15, 2013

  Actual Average Record
Temperature  
Mean Temperature 84 °F 73 °F  
Max Temperature 96 °F 82 °F 96 °F (2013)
Min Temperature 71 °F 63 °F 48 °F (2007)
Degree Days  
Heating Degree Days 0 0  
Month to date heating degree days 0 0  
Since 1 June heating degree days 34 48  
Since 1 July heating degree days 0 0  
Cooling Degree Days 19 8  
Month to date cooling degree days 138 114  
Year to date cooling degree days 392 302  
Since 1 June cooling degree days 302 260  
Growing Degree Days 32 (Base 50)    
Moisture  
Dew Point 70 °F    
Average Humidity 67    
Maximum Humidity 84    
Minimum Humidity 49    
Precipitation  
Precipitation 0.00 in 0.09 in 2.97 in (1972)
Month to date precipitation 0.77 1.43  
Year to date precipitation 23.93 18.24  
Sea Level Pressure  
Sea Level Pressure 30.26 in    
Wind  
Wind Speed 3 mph (WSW)    
Max Wind Speed 12 mph    
Max Gust Speed 15 mph    
Visibility 9 miles    
Events      
T = Trace of Precipitation, MM = Missing Value Source: NWS Daily Summary

Daily Weather History Graph

Daily Weather History Graph

Search for Another Location

Airport or City:

Trip Planner

Search our weather history database for the weather conditions in past years. The results will help you decide how hot, cold, wet, or windy it might be!

Date:

Astronomy

Jul. 15, 2013 Rise Set
Actual Time 6:19 AM EDT 9:20 PM EDT
Civil Twilight 5:46 AM EDT 9:54 PM EDT
Nautical Twilight 5:02 AM EDT 10:37 PM EDT
Astronomical Twilight 4:11 AM EDT 11:27 PM EDT
Moon 1:50 PM EDT (7/15) 12:22 AM EDT (7/15)
Length of Visible Light 16h 08m
Length of Day
15h 00m
Waxing Crescent, 45% of the Moon is Illuminated
Jul 15
Waxing Crescent
Jul 15
First Quarter
Jul 22
Full
Jul 29
Last Quarter
Aug 6
New

Hourly Weather History & Observations

Time (EDT) Temp. Heat Index Dew Point Humidity Pressure Visibility Wind Dir Wind Speed Gust Speed Precip Events Conditions
12:53 AM 73.9 °F - 66.9 °F 79% 30.24 in 10.0 mi Calm Calm - N/A   Clear
1:53 AM 73.0 °F - 66.9 °F 81% 30.24 in 10.0 mi Calm Calm - N/A   Clear
2:53 AM 73.0 °F - 66.9 °F 81% 30.25 in 8.0 mi Calm Calm - N/A   Clear
3:53 AM 71.1 °F - 66.0 °F 84% 30.25 in 7.0 mi Calm Calm - N/A   Clear
4:53 AM 72.0 °F - 66.9 °F 84% 30.26 in 7.0 mi Calm Calm - N/A   Clear
5:53 AM 72.0 °F - 66.9 °F 84% 30.27 in 6.0 mi Calm Calm - N/A   Haze
6:53 AM 73.0 °F - 68.0 °F 84% 30.27 in 5.0 mi Calm Calm - N/A   Haze
7:53 AM 78.1 °F - 70.0 °F 76% 30.28 in 8.0 mi Calm Calm - N/A   Clear
8:53 AM 82.0 °F 86.3 °F 71.1 °F 69% 30.29 in 10.0 mi East 3.5 mph - N/A   Clear
9:53 AM 84.9 °F 90.7 °F 72.0 °F 65% 30.29 in 10.0 mi Calm Calm - N/A   Clear
10:53 AM 88.0 °F 94.7 °F 72.0 °F 59% 30.29 in 10.0 mi Calm Calm - N/A   Clear
11:53 AM 91.0 °F 98.2 °F 72.0 °F 53% 30.29 in 10.0 mi ESE 5.8 mph - N/A   Scattered Clouds
12:53 PM 93.0 °F 100.7 °F 72.0 °F 50% 30.28 in 10.0 mi Variable 3.5 mph - N/A   Clear
1:53 PM 93.9 °F 100.8 °F 71.1 °F 47% 30.27 in 10.0 mi West 3.5 mph - N/A   Partly Cloudy
2:53 PM 93.9 °F 103.4 °F 73.0 °F 51% 30.26 in 10.0 mi Variable 4.6 mph - N/A   Mostly Cloudy
3:53 PM 93.9 °F 103.4 °F 73.0 °F 51% 30.25 in 10.0 mi West 6.9 mph - N/A   Clear
4:53 PM 93.0 °F 100.7 °F 72.0 °F 50% 30.25 in 10.0 mi West 9.2 mph - N/A   Clear
5:53 PM 90.0 °F 96.4 °F 71.1 °F 54% 30.24 in 10.0 mi West 8.1 mph - N/A   Clear
6:53 PM 90.0 °F 95.4 °F 70.0 °F 52% 30.23 in 10.0 mi WNW 5.8 mph - N/A   Clear
7:53 PM 87.1 °F 94.5 °F 73.0 °F 63% 30.23 in 10.0 mi SW 5.8 mph - N/A   Clear
8:53 PM 84.9 °F 90.1 °F 71.1 °F 63% 30.24 in 10.0 mi West 3.5 mph - N/A   Partly Cloudy
9:53 PM 82.0 °F 86.3 °F 71.1 °F 69% 30.25 in 10.0 mi Calm Calm - N/A   Clear
10:53 PM 80.1 °F 83.8 °F 72.0 °F 76% 30.27 in 10.0 mi Calm Calm - N/A   Clear
11:53 PM 79.0 °F - 72.0 °F 79% 30.26 in 9.0 mi SE 3.5 mph - N/A   Clear